Location: ?????
(55.8833°N, 37.6500°E)
Time: 11:56:22
(UTC+00:00)

Cosmos 2195 Rocket - Pass Details

Date: 27 February 2020
Orbit: 949 x 993 km, 82.9° (Epoch: 09 April)

Event Time Altitude Azimuth Distance (km) Brightness Sun altitude
Rises 17:09:31 0° 348° (NNW) 3,639 7.8 -19.1°
Reaches altitude 10° 17:12:01 10° 349° (N) 2,691 7.1 -19.4°
Maximum altitude 17:18:11 83° 78° (ENE) 972 4.4 -20.2°
Enters shadow 17:23:48 13° 166° (SSE) 2,483 6.3 -21.0°
